x

Potomac, Md (44042) Wave Buoy

4:50pm - Mon 18th Dec 2017 All times are EST. -5 hours from GMT.

  • Sig Wave height 0.7ft
  • Wind
    9mph, 11mph gusts
  • Air Temp 45°f
  • Sea Pressure 1016mb
  • Potomac, Md
  • Potomac, Md

More Historic Weather Station data

Upgrade to MSW Pro to gain access to the past 30 days of data for over 8000 Wavebouys and Weather Stations around the globe.

Join

Comparision Forecast

View Surf forecast
   
Mon 12/18 4:50pm 0.7ft  -  9 11 mph 1016mb - 45f
4:40pm  -   -  9 11 mph 1015.8mb - 46f
4:30pm  -   -  9 9 mph 1015.8mb - 46f
4:20pm  -   -  9 9 mph 1015.8mb - 46f
4:10pm  -   -  9 9 mph 1015.9mb - 46f
4:00pm  -   -  9 11 mph 1015.7mb 46f 47f
3:50pm  -   -  9 9 mph 1015.7mb - 47f
3:40pm  -   -  9 11 mph 1015.5mb - 47f
3:30pm  -   -  9 9 mph 1015.6mb - 47f
3:20pm  -   -  7 9 mph 1015.8mb - 47f
3:10pm 0.3ft  -  7 9 mph 1015.9mb - 47f
3:00pm 0.3ft  -  7 9 mph 1015.9mb 46f 47f
2:50pm 0.3ft  -  7 7 mph 1015.9mb - 48f
2:40pm  -   -  7 7 mph 1015.9mb - 48f
2:30pm  -   -  7 7 mph 1015.8mb - 47f
2:20pm  -   -  7 9 mph 1015.9mb - 47f
2:10pm 0.3ft  -  7 7 mph 1016.1mb - 47f
2:00pm 0.3ft  -  4 9 mph 1016.3mb 46f 47f
1:50pm 0.3ft  -  2 2 mph 1016.4mb - 47f
1:40pm  -   -  2 4 mph 1016.5mb - 47f
1:30pm  -   -  2 4 mph 1016.7mb - 46f
1:20pm  -   -  2 2 mph 1016.8mb - 46f
1:10pm 0.3ft  -  2 2 mph 1016.9mb - 47f
1:00pm 0.3ft  -   -  2 mph 1017.1mb 45f 47f
12:50pm 0.3ft  -   -  2 mph 1017.4mb - 46f
12:40pm  -   -   -  2 mph 1017.5mb - 46f
12:30pm  -   -  2 4 mph 1017.8mb - 45f
12:20pm  -   -  4 4 mph 1017.9mb - 45f
12:10pm  -   -  4 7 mph 1018.2mb - 44f
12:00pm  -   -  7 7 mph 1018.3mb 46f 44f
11:50am  -   -  7 7 mph 1018.5mb - 44f
11:40am  -   -  7 9 mph 1018.7mb - 44f
11:30am  -   -  7 9 mph 1019mb - 44f
11:20am  -   -  7 9 mph 1019.2mb - 44f
11:10am  -   -  9 9 mph 1019.4mb - 44f
11:00am  -   -  9 11 mph 1019.6mb 46f 44f
10:50am  -   -  9 11 mph 1019.6mb - 43f
10:40am  -   -  9 11 mph 1019.7mb - 43f
10:30am  -   -  9 11 mph 1019.8mb - 43f
10:20am  -   -  9 9 mph 1020mb - 43f
10:10am  -   -  9 11 mph 1020.1mb - 43f
10:00am  -   -  9 11 mph 1020.1mb 45f 43f
9:50am  -   -  9 11 mph 1020mb - 43f
9:40am  -   -  9 11 mph 1019.9mb - 43f
9:30am  -   -  9 11 mph 1019.9mb - 43f
9:20am  -   -  9 9 mph 1019.7mb - 43f
9:10am 0.3ft  -  9 9 mph 1019.6mb - 43f
9:00am 0.3ft  -  9 11 mph 1019.8mb 45f 43f
8:50am 0.3ft  -  9 11 mph 1019.8mb - 43f
8:40am  -   -  9 11 mph 1019.6mb - 43f
8:30am  -   -  9 9 mph 1019.6mb - 43f
8:20am  -   -  9 11 mph 1019.5mb - 43f
8:10am  -   -  9 11 mph 1019.5mb - 43f
8:00am  -   -  9 11 mph 1019.5mb 45f 43f
7:50am  -   -  9 11 mph 1019.5mb - 43f
7:40am  -   -  9 11 mph 1019.7mb - 43f
7:30am  -   -  9 9 mph 1019.7mb - 43f
7:20am  -   -  9 9 mph 1019.7mb - 43f
7:10am 0.3ft  -  9 9 mph 1019.7mb - 43f
7:00am 0.3ft  -  9 9 mph 1019.8mb 45f 43f
6:50am 0.3ft  -  9 9 mph 1019.7mb - 43f
6:40am  -   -  7 9 mph 1019.7mb - 43f
6:30am  -   -  7 9 mph 1019.7mb - 43f
6:20am  -   -  7 9 mph 1019.7mb - 44f
6:10am 0.3ft  -  7 7 mph 1019.7mb - 44f
6:00am 0.3ft  -  7 7 mph 1019.7mb 45f 44f
5:50am 0.3ft  -  7 7 mph 1019.6mb - 44f
5:40am  -   -  7 7 mph 1019.4mb - 44f
5:30am  -   -  7 7 mph 1019.4mb - 44f
5:20am  -   -  7 7 mph 1019.3mb - 44f
5:10am 0.3ft  -  7 9 mph 1019.2mb - 44f
5:00am 0.3ft  -  7 9 mph 1019.2mb 45f 44f
4:50am 0.3ft  -  7 9 mph 1019.2mb - 44f
4:40am  -   -  7 9 mph 1019.1mb - 44f
4:30am  -   -  7 9 mph 1019.2mb - 44f
4:20am  -   -  7 9 mph 1019.2mb - 44f
4:10am 0.3ft  -  7 9 mph 1019.2mb - 44f
4:00am 0.3ft  -  4 7 mph 1019.4mb 45f 44f
3:50am 0.3ft  -  4 4 mph 1019.4mb - 44f
3:40am  -   -  4 4 mph 1019.4mb - 44f
3:30am  -   -  4 4 mph 1019.5mb - 44f
3:20am  -   -  4 4 mph 1019.6mb - 44f
3:10am 0.3ft  -  4 7 mph 1019.7mb - 45f
3:00am 0.3ft  -  4 7 mph 1019.6mb 45f 44f
2:50am 0.3ft  -  4 4 mph 1019.6mb - 44f
2:40am  -   -  4 4 mph 1019.7mb - 44f
2:30am  -   -  4 4 mph 1019.7mb - 44f
2:20am  -   -  4 7 mph 1019.7mb - 44f
2:10am 0.3ft  -  4 7 mph 1019.9mb - 44f
2:00am 0.3ft  -  4 4 mph 1020mb 45f 44f
1:50am 0.3ft  -  4 7 mph 1019.9mb - 44f
1:40am  -   -  4 4 mph 1019.9mb - 44f
1:30am  -   -  4 7 mph 1020mb - 45f
1:20am  -   -  4 7 mph 1020.1mb - 44f
1:10am 0.3ft  -  4 7 mph 1020.2mb - 44f
1:00am 0.3ft  -  4 7 mph 1020.2mb 45f 44f
12:50am 0.3ft  -  4 4 mph 1020.2mb - 45f
12:40am  -   -  4 4 mph 1020.2mb - 45f
12:30am  -   -  4 4 mph 1020.4mb - 45f
12:20am  -   -  4 4 mph 1020.4mb - 45f
12:10am  -   -  4 4 mph 1020.4mb - 45f
12:00am  -   -  7 7 mph 1020.6mb 45f 45f
Sun 12/17 11:50pm  -   -  7 9 mph 1020.8mb - 45f
11:40pm  -   -  7 9 mph 1020.8mb - 45f
11:30pm  -   -  9 11 mph 1020.7mb - 45f
11:20pm  -   -  7 9 mph 1020.8mb - 45f
11:10pm 0.3ft  -  9 11 mph 1020.9mb - 45f
11:00pm 0.3ft  -  9 9 mph 1021mb 45f 45f
10:50pm 0.3ft  -  9 11 mph 1021mb - 45f
10:40pm  -   -  7 9 mph 1020.8mb - 45f
10:30pm  -   -  4 7 mph 1020.7mb - 45f
10:20pm  -   -  7 7 mph 1020.7mb - 45f
10:10pm 0.3ft  -  7 7 mph 1020.8mb - 45f
10:00pm 0.3ft  -  7 9 mph 1021.1mb 45f 45f
9:50pm 0.3ft  -  7 9 mph 1021.2mb - 45f
9:40pm  -   -  7 7 mph 1021.2mb - 45f
9:30pm  -   -  7 9 mph 1021.1mb - 45f
9:20pm  -   -  7 9 mph 1021.2mb - 45f
9:10pm 0.3ft  -  7 9 mph 1021.5mb - 45f
9:00pm 0.3ft  -  7 7 mph 1021.5mb 44f 45f
8:50pm 0.3ft  -  7 7 mph 1021.7mb - 45f
8:40pm  -   -  7 7 mph 1021.8mb - 45f
8:30pm  -   -  4 7 mph 1022.1mb - 45f
8:20pm  -   -  4 7 mph 1022.3mb - 45f
8:10pm 0.3ft  -  4 7 mph 1022.3mb - 45f
8:00pm 0.3ft  -  4 7 mph 1022.4mb 44f 45f
7:50pm 0.3ft  -  7 7 mph 1022.5mb - 45f
7:40pm  -   -  4 7 mph 1022.5mb - 45f
7:30pm  -   -  2 2 mph 1022.6mb - 45f
7:20pm  -   -  4 4 mph 1022.6mb - 45f
7:10pm 0.3ft  -  4 4 mph 1022.5mb - 45f
7:00pm 0.3ft  -  2 2 mph 1022.6mb 45f 45f
6:50pm 0.3ft  -  2 2 mph 1022.8mb - 45f
6:40pm  -   -  2 4 mph 1023.1mb - 45f
6:30pm  -   -  2 4 mph 1023.2mb - 45f
6:20pm  -   -  4 7 mph 1023mb - 45f
6:10pm 0.7ft  -  4 4 mph 1022.8mb - 45f
6:00pm 0.7ft  -  4 7 mph 1022.6mb 45f 45f
5:50pm 0.7ft  -  7 9 mph 1022.3mb - 45f
5:40pm  -   -  9 11 mph 1022mb - 45f
5:30pm  -   -  9 11 mph 1021.6mb - 45f
5:20pm  -   -  9 11 mph 1021.7mb - 45f
5:10pm 0.7ft  -  9 11 mph 1021.7mb - 45f
5:00pm 0.7ft  -  9 11 mph 1021.6mb 45f 45f
4:50pm 0.7ft  -  9 11 mph 1021.4mb - 45f
4:40pm  -   -  11 13 mph 1021.1mb - 45f
4:30pm  -   -  11 13 mph 1021.1mb - 45f
4:20pm  -   -  9 11 mph 1021.6mb - 45f
4:10pm 0.3ft  -  9 11 mph 1021.5mb - 45f
4:00pm 0.3ft  -  9 11 mph 1021.6mb 45f 45f
3:50pm 0.3ft  -  9 9 mph 1021.8mb - 45f
3:40pm  -   -  7 9 mph 1022.1mb - 45f
3:30pm  -   -  7 9 mph 1022.2mb - 45f
3:20pm  -   -  7 7 mph 1022.1mb - 45f
3:10pm 0.3ft  -  4 7 mph 1022.2mb - 45f
3:00pm 0.3ft  -  7 7 mph 1022mb 45f 45f
2:50pm 0.3ft  -  7 9 mph 1022mb - 46f
2:40pm  -   -  7 9 mph 1022.2mb - 45f
2:20pm  -   -  7 9 mph 1022.1mb - 45f
2:10pm 0.3ft  -  7 9 mph 1022.5mb - 45f
2:00pm 0.3ft  -  7 7 mph 1022.5mb 45f 45f
1:50pm  -   -  7 9 mph 1022.3mb - 45f
1:40pm  -   -  7 7 mph 1022.4mb - 45f
1:30pm  -   -  4 4 mph 1022.6mb - 44f
1:20pm  -   -  4 4 mph 1022.8mb - 44f
1:10pm 0.3ft  -  2 2 mph 1023mb - 43f
1:00pm 0.3ft  -  2 2 mph 1023.2mb 44f 43f
12:50pm 0.3ft  -  2 2 mph 1023.3mb - 43f
12:40pm  -   -   -  2 mph 1023.7mb - 43f
12:30pm  -   -   -  2 mph 1023.7mb - 43f
12:20pm  -   -  2 2 mph 1023.7mb - 43f
12:10pm 0.3ft  -  2 2 mph 1023.9mb - 43f
12:00pm 0.3ft  -  2 4 mph 1024.3mb 44f 42f
11:50am  -   -  4 4 mph 1024.4mb - 42f
11:40am  -   -  4 7 mph 1024.6mb - 42f
11:30am  -   -  4 7 mph 1024.6mb - 42f
11:20am  -   -  4 4 mph 1024.7mb - 42f
11:10am 0.3ft  -  4 4 mph 1024.6mb - 41f
11:00am 0.3ft  -  4 4 mph 1024.6mb 44f 41f
10:50am 0.3ft  -  4 4 mph 1024.7mb - 41f
10:40am  -   -  4 4 mph 1024.6mb - 41f
10:30am  -   -  2 2 mph 1024.2mb - 41f
10:20am  -   -  2 2 mph 1024.2mb - 41f
10:10am 0.3ft  -  2 4 mph 1024.2mb - 41f
10:00am 0.3ft  -  2 2 mph 1024.5mb 44f 41f
9:50am  -   -  2 4 mph 1024.7mb - 40f
9:40am  -   -  4 4 mph 1024.7mb - 40f
9:30am  -   -  4 4 mph 1024.5mb - 40f
9:20am  -   -  4 4 mph 1024.6mb - 40f
9:10am 0.3ft  -  7 9 mph 1024.6mb - 39f
9:00am 0.3ft  -  9 11 mph 1024.8mb 44f 39f
8:50am 0.3ft  -  7 11 mph 1024.6mb - 40f
8:40am  -   -  4 7 mph 1024.5mb - 41f
8:30am  -   -  2 2 mph 1024.3mb - 41f
8:20am  -   -  2 4 mph 1024.6mb - 41f
8:10am 0.3ft  -  2 4 mph 1024.6mb - 41f
8:00am 0.3ft  -  2 4 mph 1024.5mb 44f 41f
7:50am 0.3ft  -  4 4 mph 1024.6mb - 40f
7:40am  -   -  2 4 mph 1024.4mb - 41f
7:30am  -   -  2 4 mph 1024.2mb - 40f
7:20am  -   -  4 4 mph 1024.2mb - 40f
7:10am 0.3ft  -  4 4 mph 1024.3mb - 40f
7:00am 0.3ft  -  4 4 mph 1024.4mb 44f 40f
6:50am 0.3ft  -  4 7 mph 1024.4mb - 40f
6:40am  -   -  4 4 mph 1024.2mb - 40f
6:30am  -   -  4 4 mph 1024mb - 40f
6:20am  -   -  4 4 mph 1023.8mb - 41f
6:10am 0.3ft  -  7 7 mph 1023.6mb - 41f
6:00am 0.3ft  -  4 7 mph 1023.6mb 44f 41f
5:50am 0.3ft  -  7 9 mph 1023.7mb - 41f
5:40am  -   -  7 7 mph 1023.6mb - 41f
5:30am  -   -  7 7 mph 1023.6mb - 41f
5:20am  -   -  7 9 mph 1023.5mb - 41f
5:10am 0.3ft  -  7 9 mph 1023.3mb - 41f
5:00am 0.3ft  -  7 9 mph 1023.4mb 44f 41f
4:50am 0.3ft  -  7 9 mph 1023.3mb - 41f
4:40am  -   -  7 9 mph 1023.3mb - 40f
4:30am  -   -  7 9 mph 1023.4mb - 40f
4:20am  -   -  9 9 mph 1023.5mb - 40f
4:10am 0.3ft  -  9 9 mph 1023.7mb - 40f
4:00am 0.3ft  -  7 9 mph 1023.8mb 44f 40f
3:50am 0.3ft  -  7 9 mph 1024mb - 40f
3:40am  -   -  7 9 mph 1023.9mb - 40f
3:30am  -   -  7 9 mph 1023.8mb - 41f
3:20am  -   -  7 7 mph 1023.6mb - 41f
3:10am 0.7ft  -  7 9 mph 1023.6mb - 41f
3:00am 0.7ft  -  7 9 mph 1023.6mb 45f 42f
2:50am 0.7ft  -  9 11 mph 1023.6mb - 42f
2:40am  -   -  11 13 mph 1023.5mb - 42f
2:30am  -   -  11 13 mph 1023.3mb - 41f
2:20am  -   -  11 13 mph 1023.1mb - 41f
2:10am 0.7ft  -  13 13 mph 1023.1mb - 41f
2:00am 0.7ft  -  11 11 mph 1023.1mb 45f 42f
1:50am  -   -  11 13 mph 1023.1mb - 42f
1:40am  -   -  13 16 mph 1023.1mb - 42f
1:30am  -   -  11 18 mph 1023mb - 42f
1:20am  -   -  11 13 mph 1023mb - 42f
1:10am 1ft  -  11 13 mph 1022.8mb - 42f
1:00am 1ft 2s 9 11 mph 1022.6mb 45f 42f
12:50am 1ft  -  9 11 mph 1022.5mb - 42f
12:40am  -   -  9 11 mph 1022.5mb - 42f
12:30am  -   -  11 13 mph 1022.5mb - 42f
12:20am  -   -  11 13 mph 1022.6mb - 42f
12:10am 1.3ft  -  9 11 mph 1022.7mb - 43f
12:00am 1.3ft 2s 11 13 mph 1022.7mb 45f 43f
Sat 12/16 11:50pm 1.3ft  -  11 16 mph 1022.6mb - 43f
11:40pm  -   -  13 16 mph 1022.4mb - 43f
11:30pm  -   -  13 16 mph 1022.4mb - 43f
11:20pm  -   -  13 16 mph 1022.5mb - 43f
11:10pm 1.3ft  -  13 16 mph 1022.4mb - 43f
11:00pm 1.3ft 2s 16 18 mph 1022.3mb 45f 43f
10:50pm  -   -  16 18 mph 1022.3mb - 43f
10:40pm  -   -  13 16 mph 1022.3mb - 43f
10:30pm  -   -  16 18 mph 1022.2mb - 43f
10:20pm  -   -  16 18 mph 1022.1mb - 43f
10:10pm 1.3ft  -  13 18 mph 1022.1mb - 43f
10:00pm 1.3ft 2s 13 16 mph 1022.1mb 45f 43f
9:50pm 1.3ft  -  13 18 mph 1022.1mb - 43f
9:40pm  -   -  13 16 mph 1022mb - 43f
9:30pm  -   -  11 13 mph 1022mb - 43f
9:20pm  -   -  11 13 mph 1021.9mb - 43f
9:10pm 1.3ft  -  11 13 mph 1022mb - 43f
9:00pm 1.3ft 2s 11 13 mph 1021.9mb 45f 43f
8:50pm 1.3ft  -  11 13 mph 1021.9mb - 43f
8:40pm  -   -  11 13 mph 1021.9mb - 43f
8:30pm  -   -  11 13 mph 1021.9mb - 43f
8:20pm  -   -  9 11 mph 1021.9mb - 44f
8:10pm 1ft  -  9 11 mph 1021.9mb - 44f
8:00pm 1ft 2s 9 11 mph 1021.9mb 45f 43f
7:50pm 1ft  -  11 13 mph 1021.7mb - 43f
7:40pm  -   -  11 13 mph 1021.6mb - 44f
7:30pm  -   -  11 13 mph 1021.5mb - 44f
7:20pm  -   -  11 11 mph 1021.4mb - 44f
7:10pm 1ft  -  11 13 mph 1021.4mb - 44f
7:00pm 1ft 2s 11 11 mph 1021.4mb 45f 44f
6:50pm 1ft  -  11 13 mph 1021.2mb - 44f
6:40pm  -   -  11 13 mph 1021.1mb - 44f
6:30pm  -   -  11 13 mph 1020.9mb - 44f
6:20pm  -   -  11 13 mph 1020.8mb - 44f
6:10pm 1ft  -  11 11 mph 1020.7mb - 44f
6:00pm 1ft 2s 9 13 mph 1020.7mb 45f 44f
5:50pm 1ft  -  9 11 mph 1020.6mb - 45f
5:40pm  -   -  9 11 mph 1020.5mb - 45f
5:30pm  -   -  11 13 mph 1020.2mb - 45f
5:20pm  -   -  11 13 mph 1020.1mb - 45f
5:10pm 1.3ft  -  11 16 mph 1019.9mb - 45f
5:00pm 1.3ft 2s 11 13 mph 1019.9mb 45f 45f
4:50pm 1.3ft  -  11 13 mph 1019.8mb - 45f
4:40pm  -   -  13 16 mph 1019.7mb - 46f
4:30pm  -   -  13 16 mph 1019.7mb - 46f
4:20pm  -   -  13 18 mph 1019.7mb - 46f
4:10pm 1.3ft  -  13 16 mph 1019.7mb - 46f
4:00pm 1.3ft 2s 13 16 mph 1019.7mb 45f 46f
3:50pm 1.3ft  -  11 13 mph 1019.7mb - 46f
3:40pm  -   -  11 13 mph 1019.7mb - 46f
3:30pm  -   -  13 16 mph 1019.7mb - 46f
3:20pm  -   -  11 16 mph 1019.8mb - 46f
3:10pm 1ft  -  13 16 mph 1019.6mb - 46f
3:00pm 1ft 2s 13 13 mph 1019.5mb 45f 46f
2:50pm 1ft  -  7 13 mph 1019.5mb - 46f
2:40pm  -   -  9 9 mph 1019.5mb - 45f
2:30pm  -   -  9 11 mph 1019.6mb - 45f
2:20pm  -   -  11 13 mph 1019.6mb - 44f
2:10pm 1.6ft  -  13 16 mph 1019.6mb - 44f
2:00pm 1.6ft 2s 13 16 mph 1019.8mb 44f 44f
1:50pm 1.6ft  -  11 13 mph 1019.7mb - 44f
1:40pm  -   -  11 16 mph 1019.8mb - 44f
1:30pm  -   -  13 16 mph 1019.7mb - 44f
1:20pm  -   -  13 16 mph 1019.7mb - 43f
1:10pm 1.6ft  -  13 16 mph 1019.8mb - 43f
1:00pm 1.6ft 2s 13 16 mph 1020mb 43f 43f
12:50pm  -   -  13 16 mph 1020mb - 43f
12:40pm  -   -  13 18 mph 1020.2mb - 43f
12:30pm  -   -  13 18 mph 1020.3mb - 42f
12:20pm  -   -  13 20 mph 1020.6mb - 42f
12:10pm 1.3ft  -  16 18 mph 1020.7mb - 42f
12:00pm 1.3ft 2s 13 18 mph 1020.9mb 43f 42f
11:50am 1.3ft  -  13 18 mph 1021.2mb - 42f
11:40am  -   -  16 20 mph 1021.3mb - 41f
11:30am  -   -  13 18 mph 1021.8mb - 41f
11:20am  -   -  13 18 mph 1021.8mb - 40f
11:10am 1ft  -  13 16 mph 1021.9mb - 40f
11:00am 1ft 2s 13 16 mph 1022.1mb 45f 40f
10:50am 1ft  -  11 16 mph 1022.3mb - 40f
10:40am  -   -  13 16 mph 1022.1mb - 39f
10:30am  -   -  11 16 mph 1022.1mb - 39f
10:20am  -   -  13 16 mph 1022.1mb - 38f
10:10am 1.3ft  -  13 16 mph 1022.2mb - 38f
10:00am 1.3ft 2s 13 18 mph 1022.5mb 45f 38f
9:50am 1.3ft  -  13 16 mph 1022.5mb - 38f
9:40am  -   -  16 18 mph 1022.3mb - 37f
9:30am  -   -  16 18 mph 1022.3mb - 37f
9:20am  -   -  16 20 mph 1022.2mb - 37f
9:10am 1.3ft  -  16 18 mph 1022.1mb - 37f
9:00am 1.3ft 2s 16 18 mph 1022mb 45f 37f
8:50am 1.3ft  -  16 18 mph 1021.8mb - 37f
8:40am  -   -  16 18 mph 1021.6mb - 36f
8:30am  -   -  16 18 mph 1021.6mb - 35f
8:20am  -   -  16 18 mph 1021.8mb - 36f
8:10am 1.3ft  -  16 18 mph 1022.1mb - 36f
8:00am 1.3ft 2s 16 18 mph 1022mb 45f 36f
7:50am 1.3ft  -  16 18 mph 1022mb - 36f
7:40am  -   -  13 16 mph 1022mb - 36f
7:30am  -   -  13 16 mph 1022mb - 36f
7:20am  -   -  11 16 mph 1021.9mb - 35f
7:10am 1.3ft  -  13 16 mph 1021.6mb - 35f
7:00am 1.3ft 2s 13 16 mph 1021.4mb 45f 36f
6:50am 1.3ft  -  13 18 mph 1021.2mb - 36f
6:40am  -   -  13 18 mph 1021.1mb - 37f
6:30am  -   -  16 18 mph 1021mb - 36f
6:20am  -   -  16 18 mph 1021mb - 36f
6:10am 1.6ft  -  16 18 mph 1020.9mb - 36f
6:00am 1.6ft 2s 16 18 mph 1020.8mb 45f 36f
5:50am 1.6ft  -  16 18 mph 1020.6mb - 35f
5:40am  -   -  16 18 mph 1020.4mb - 35f
5:30am  -   -  16 18 mph 1020mb - 35f
5:20am  -   -  13 16 mph 1019.8mb - 35f
5:10am 1.3ft  -  16 18 mph 1019.8mb - 35f
5:00am 1.3ft 2s 16 18 mph 1019.6mb 45f 35f
4:50am 1.3ft  -  13 18 mph 1019.5mb - 35f
4:40am  -   -  13 18 mph 1019.4mb - 35f
4:30am  -   -  13 16 mph 1019.4mb - 35f
4:20am  -   -  13 16 mph 1019.3mb - 34f
4:10am 1.6ft  -  13 18 mph 1019.2mb - 34f
4:00am 1.6ft 2s 13 18 mph 1019.2mb 44f 35f
3:50am 1.6ft  -  13 16 mph 1019mb - 35f
3:40am  -   -  16 18 mph 1019mb - 35f
3:30am  -   -  16 18 mph 1018.9mb - 34f
3:20am  -   -  16 18 mph 1018.8mb - 34f
3:10am 1.3ft  -  13 16 mph 1018.7mb - 34f
3:00am 1.3ft 2s 11 13 mph 1018.5mb 45f 33f
2:50am 1.3ft  -  11 13 mph 1018.5mb - 34f
2:40am  -   -  11 16 mph 1018.3mb - 34f
2:30am  -   -  13 16 mph 1018.3mb - 34f
2:20am  -   -  13 16 mph 1018.4mb - 34f
2:10am  -   -  11 13 mph 1018.1mb - 34f
2:00am  -   -  9 11 mph 1017.9mb 44f 33f
1:50am  -   -  9 13 mph 1018mb - 33f
1:40am  -   -  9 11 mph 1017.8mb - 33f
1:30am  -   -  11 13 mph 1017.6mb - 33f
1:20am  -   -  11 13 mph 1017.7mb - 33f
1:10am 1ft  -  9 13 mph 1017.8mb - 33f
1:00am 1ft 2s 9 11 mph 1017.7mb 45f 33f
12:50am 1ft  -  11 16 mph 1017.6mb - 33f
12:40am  -   -  11 13 mph 1017.4mb - 33f
12:30am  -   -  11 13 mph 1017.3mb - 33f
12:20am  -   -  11 13 mph 1017.1mb - 33f
12:10am 1ft  -  11 13 mph 1017mb - 33f
12:00am 1ft 2s 9 13 mph 1016.9mb 45f 33f
Fri 12/15 11:50pm 1ft  -  9 11 mph 1016.8mb - 33f
11:40pm  -   -  11 11 mph 1016.9mb - 33f
11:30pm  -   -  9 11 mph 1016.8mb - 33f
11:20pm  -   -  9 11 mph 1016.7mb - 33f
11:10pm 1ft  -  9 13 mph 1016.7mb - 33f
11:00pm 1.3ft 2s 9 13 mph 1016.6mb 45f 33f
10:50pm 1ft  -  11 11 mph 1016.5mb - 33f
10:40pm  -   -  11 13 mph 1016.4mb - 33f
10:30pm  -   -  11 13 mph 1016.4mb - 33f
10:20pm  -   -  11 13 mph 1016.4mb - 33f
10:10pm 1ft  -  11 16 mph 1016.5mb - 33f
10:00pm 1ft 2s 13 16 mph 1016.4mb 46f 33f
9:50pm 1ft  -  13 16 mph 1016.5mb - 33f
9:40pm  -   -  13 16 mph 1016.4mb - 33f
9:30pm  -   -  13 18 mph 1016.3mb - 33f
9:20pm  -   -  13 16 mph 1016.2mb - 33f
9:10pm 1.3ft  -  13 16 mph 1016.2mb - 33f
9:00pm 1.3ft 2s 13 18 mph 1016mb 46f 33f
8:50pm 1.3ft  -  13 16 mph 1015.8mb - 33f
8:40pm  -   -  13 16 mph 1015.7mb - 34f
8:30pm  -   -  13 18 mph 1015.7mb - 34f
8:20pm  -   -  13 18 mph 1015.5mb - 34f
8:10pm 1ft  -  16 18 mph 1015.4mb - 34f
8:00pm 1ft 2s 13 18 mph 1015.3mb 45f 34f
7:50pm 1ft  -  13 16 mph 1015.1mb - 34f
7:40pm  -   -  13 18 mph 1015mb - 33f
7:30pm  -   -  13 16 mph 1014.7mb - 33f
7:20pm  -   -  11 16 mph 1014.6mb - 33f
7:10pm 0.7ft  -  9 13 mph 1014.3mb - 33f
7:00pm 1ft 2s 9 13 mph 1014mb 45f 32f
6:50pm 0.7ft  -  9 11 mph 1013.9mb - 32f
6:40pm  -   -  9 13 mph 1013.9mb - 32f
6:30pm  -   -  11 13 mph 1013.9mb - 32f
6:20pm  -   -  11 13 mph 1013.6mb - 32f
6:10pm 1ft  -  9 11 mph 1013.5mb - 32f
6:00pm 1.3ft 2s 9 11 mph 1013.6mb 46f 32f
5:50pm 1ft  -  9 11 mph 1013.5mb - 31f
5:40pm  -   -  11 13 mph 1013.3mb - 31f
5:30pm  -   -  11 16 mph 1013.2mb - 31f
5:20pm  -   -  16 20 mph 1013mb - 31f
5:10pm 1.3ft  -  13 16 mph 1012.8mb - 32f
5:00pm 1.3ft 2s 16 20 mph 1012.9mb 46f 32f
4:50pm 1.3ft  -  16 20 mph 1012.7mb - 32f
4:40pm  -   -  13 18 mph 1012.5mb - 32f
4:30pm  -   -  16 18 mph 1012.6mb - 33f
4:20pm  -   -  13 18 mph 1012.7mb - 33f
4:10pm 0.7ft  -  18 20 mph 1012.8mb - 34f
4:00pm 1ft 2s 16 18 mph 1012.3mb 46f 34f
3:50pm 0.7ft  -  16 20 mph 1012.3mb - 35f
3:40pm  -   -  16 20 mph 1012.2mb - 35f
3:30pm  -   -  9 16 mph 1011.6mb - 35f
3:20pm  -   -  9 11 mph 1011.3mb - 34f
3:10pm 0.7ft  -  9 13 mph 1011.6mb - 35f
3:00pm 0.7ft  -  11 13 mph 1011.6mb 46f 35f
2:50pm 0.7ft  -  11 16 mph 1011.9mb - 35f
2:40pm  -   -  11 16 mph 1011.8mb - 35f
2:30pm  -   -  11 16 mph 1011.9mb - 35f
2:20pm  -   -  11 16 mph 1011.7mb - 36f
2:10pm 0.7ft  -  13 20 mph 1011.4mb - 36f
2:00pm 0.7ft  -  11 16 mph 1011.4mb 46f 35f
1:50pm 0.7ft  -  11 16 mph 1011.7mb - 35f
1:40pm  -   -  11 13 mph 1011.8mb - 35f
1:30pm  -   -  11 16 mph 1012.2mb - 36f
1:20pm  -   -  13 18 mph 1012.1mb - 36f
1:10pm 0.7ft  -  13 16 mph 1012.2mb - 36f
1:00pm 0.7ft  -  13 18 mph 1012.4mb 46f 36f
12:50pm 0.7ft  -  13 16 mph 1012.5mb - 36f
12:40pm  -   -  13 16 mph 1012.5mb - 36f
12:30pm  -   -  13 18 mph 1012.9mb - 36f
12:20pm  -   -  13 16 mph 1013.2mb - 36f
12:10pm 1ft  -  13 16 mph 1013.6mb - 36f
12:00pm 1ft 2s 13 18 mph 1014.1mb 46f 36f
11:50am 1ft  -  13 18 mph 1014.2mb - 36f
11:40am  -   -  13 18 mph 1014.4mb - 35f
11:30am  -   -  13 18 mph 1014.7mb - 35f
11:20am  -   -  13 16 mph 1014.9mb - 35f
11:10am 1ft  -  13 16 mph 1015.1mb - 35f
11:00am 1ft 2s 13 16 mph 1015.6mb 46f 35f
10:50am 1ft  -  13 16 mph 1016.3mb - 35f
10:40am  -   -  13 16 mph 1016.6mb - 35f
10:30am  -   -  13 16 mph 1016.7mb - 35f
10:20am  -   -  13 18 mph 1016.8mb - 35f
10:10am 1ft  -  13 16 mph 1017mb - 35f
10:00am 1ft 2s 13 16 mph 1017.1mb 46f 35f
9:50am 1ft  -  13 18 mph 1016.9mb - 35f
9:40am  -   -  13 16 mph 1017mb - 34f
9:30am  -   -  13 16 mph 1017mb - 34f
9:20am  -   -  13 16 mph 1017mb - 34f
9:10am 1ft  -  13 16 mph 1017mb - 34f
9:00am 1ft 2s 13 18 mph 1017mb 46f 34f
8:50am 1ft  -  13 18 mph 1017.1mb - 34f
8:40am  -   -  13 16 mph 1017mb - 34f
8:30am  -   -  13 18 mph 1017.3mb - 34f
8:20am  -   -  13 18 mph 1017.4mb - 33f
8:10am 0.7ft  -  13 16 mph 1017.6mb - 33f
8:00am 1ft 2s 13 16 mph 1017.8mb 46f 33f
7:50am 0.7ft  -  13 16 mph 1018mb - 33f
7:40am  -   -  13 16 mph 1018.4mb - 33f
7:30am  -   -  13 18 mph 1018.4mb - 33f
7:20am  -   -  13 16 mph 1018.2mb - 33f
7:10am 0.7ft  -  13 16 mph 1018.4mb - 33f
7:00am 0.7ft  -  13 16 mph 1018.5mb 46f 33f
6:50am 0.7ft  -  13 16 mph 1018.6mb - 33f
6:40am  -   -  13 16 mph 1018.4mb - 33f
6:30am  -   -  11 16 mph 1018.4mb - 34f
6:20am  -   -  11 16 mph 1018.4mb - 33f
6:10am 0.7ft  -  11 16 mph 1018.5mb - 33f
6:00am 0.7ft  -  13 16 mph 1018.6mb 46f 33f
5:50am 0.7ft  -  11 16 mph 1018.7mb - 33f
5:40am  -   -  11 16 mph 1018.7mb - 33f
5:30am  -   -  11 16 mph 1018.8mb - 33f
5:20am  -   -  11 16 mph 1018.9mb - 33f
5:10am 0.7ft  -  11 16 mph 1018.9mb - 33f
5:00am 0.7ft  -  13 18 mph 1018.9mb 46f 33f
4:50am 0.7ft  -  13 16 mph 1018.8mb - 33f
4:40am  -   -  13 16 mph 1018.8mb - 33f
4:30am  -   -  13 18 mph 1018.8mb - 33f
4:20am  -   -  13 18 mph 1018.9mb - 33f
4:10am 0.7ft  -  13 18 mph 1019.2mb - 33f
4:00am 0.7ft  -  13 18 mph 1019.3mb 46f 33f
3:50am 0.7ft  -  16 18 mph 1019.4mb - 33f
3:40am  -   -  13 18 mph 1019.5mb - 33f
3:30am  -   -  13 18 mph 1019.6mb - 34f
3:20am  -   -  13 18 mph 1019.6mb - 34f
3:10am 0.3ft  -  13 18 mph 1019.5mb - 34f
3:00am 0.7ft  -  13 16 mph 1019.5mb 46f 34f
2:50am 0.3ft  -  13 16 mph 1019.5mb - 34f
2:40am  -   -  11 16 mph 1019.5mb - 34f
2:30am  -   -  13 18 mph 1019.4mb - 34f
2:20am  -   -  11 18 mph 1019.2mb - 34f
2:10am 0.3ft  -  11 16 mph 1019.3mb - 35f
2:00am 0.7ft  -  11 18 mph 1019.5mb 46f 35f
1:50am 0.3ft  -  11 16 mph 1019.3mb - 35f
1:40am  -   -  11 16 mph 1019.2mb - 35f
1:30am  -   -  11 18 mph 1019.1mb - 35f
1:20am  -   -  11 16 mph 1019.1mb - 35f
1:10am 0.3ft  -  11 16 mph 1018.9mb - 35f
1:00am 0.3ft  -  13 16 mph 1018.9mb 46f 35f
12:50am 0.3ft  -  13 16 mph 1019mb - 36f
12:40am  -   -  11 16 mph 1019mb - 36f
12:30am  -   -  9 13 mph 1019mb - 36f
12:20am  -   -  9 16 mph 1019.1mb - 36f
12:10am 0.3ft  -  11 13 mph 1019.1mb - 36f
12:00am 0.3ft  -  11 16 mph 1019mb 46f 36f
Thu 12/14 11:50pm 0.3ft  -  11 16 mph 1019mb - 36f
11:40pm  -   -  11 16 mph 1019.3mb - 36f
11:30pm  -   -  11 16 mph 1019.2mb - 37f
11:20pm  -   -  11 16 mph 1019.2mb - 37f
11:10pm 0.7ft  -  11 13 mph 1019.1mb - 37f
11:00pm 0.7ft  -  11 16 mph 1019mb 46f 37f